Weather History for PAGK - December, 2013

Change the Weather History Date:

Monday, December 16, 2013

  Actual Average Record
Temperature  
Mean Temperature -6 °F -  
Max Temperature 1 °F 7 °F 39 °F (2005)
Min Temperature -13 °F -8 °F -45 °F (1980)
Degree Days  
Heating Degree Days 71    
Moisture  
Dew Point -8 °F    
Average Humidity 77    
Maximum Humidity 86    
Minimum Humidity 59    
Precipitation  
Precipitation 0.00 in - - ()
Sea Level Pressure  
Sea Level Pressure 30.16 in    
Wind  
Wind Speed 3 mph (NNW)    
Max Wind Speed 7 mph    
Max Gust Speed -    
Visibility 10 miles    
Events      
Averages and records for this station are not official NWS values.
T = Trace of Precipitation, MM = Missing Value Source: NWS Daily Summary

Daily Weather History Graph

Daily Weather History Graph

Search for Another Location

Airport or City:

Trip Planner

Search our weather history database for the weather conditions in past years. The results will help you decide how hot, cold, wet, or windy it might be!

Date:

Astronomy

Dec. 16, 2013 Rise Set
Actual Time 10:03 AM AKST 3:11 PM AKST
Civil Twilight 8:57 AM AKST 4:17 PM AKST
Nautical Twilight 7:55 AM AKST 5:20 PM AKST
Astronomical Twilight 6:59 AM AKST 6:15 PM AKST
Moon 3:33 PM AKST (12/16) 8:55 AM AKST (12/16)
Length of Visible Light 7h 20m
Length of Day
5h 07m
Full, 100% of the Moon is Illuminated
Dec 16
Full
Dec 17
Full
Dec 25
Last Quarter
Jan 1
New
Jan 7
First Quarter

Hourly Weather History & Observations

Time (AKST) Temp. Windchill Dew Point Humidity Pressure Visibility Wind Dir Wind Speed Gust Speed Precip Events Conditions
12:53 AM -7.1 °F -21.4 °F -11.9 °F 79% 30.00 in 10.0 mi NW 6.9 mph - N/A   Clear
1:53 AM -7.1 °F -19.9 °F -11.9 °F 79% 30.04 in 10.0 mi NNW 5.8 mph - N/A   Overcast
2:53 AM -9.0 °F -23.8 °F -13.0 °F 83% 30.06 in 10.0 mi NW 6.9 mph - N/A   Mostly Cloudy
3:53 AM -13.0 °F -25.1 °F -16.1 °F 86% 30.09 in 10.0 mi NW 4.6 mph - N/A   Mostly Cloudy
4:53 AM -7.1 °F - -11.9 °F 79% 30.10 in 10.0 mi Calm Calm - N/A   Overcast
5:53 AM -5.1 °F -15.8 °F -11.0 °F 76% 30.11 in 10.0 mi NNW 4.6 mph - N/A   Overcast
6:53 AM -4.0 °F -14.6 °F -11.0 °F 72% 30.13 in 10.0 mi NW 4.6 mph - N/A   Overcast
7:53 AM -2.9 °F -11.2 °F -11.0 °F 68% 30.16 in 10.0 mi North 3.5 mph - N/A   Overcast
8:53 AM -4.0 °F -12.4 °F -11.0 °F 72% 30.17 in 10.0 mi NNE 3.5 mph - N/A   Overcast
9:53 AM -4.0 °F - -9.9 °F 76% 30.18 in 10.0 mi Calm Calm - N/A   Overcast
10:53 AM -2.9 °F - -9.0 °F 75% 30.21 in 10.0 mi Calm Calm - N/A   Overcast
11:53 AM -2.0 °F - -7.1 °F 79% 30.22 in 10.0 mi Calm Calm - N/A   Overcast
12:53 PM -0.9 °F - -6.0 °F 79% 30.22 in 10.0 mi Calm Calm - N/A   Overcast
1:53 PM -0.9 °F - -6.0 °F 79% 30.21 in 10.0 mi Calm Calm - N/A   Overcast
2:53 PM -0.9 °F - -6.0 °F 79% 30.22 in 10.0 mi Calm Calm - N/A   Overcast
3:53 PM -0.0 °F - -5.1 °F 79% 30.22 in 10.0 mi Calm Calm - N/A   Overcast
4:53 PM -0.0 °F - -5.1 °F 79% 30.21 in 10.0 mi Calm Calm - N/A   Overcast
5:53 PM 1.0 °F - -4.0 °F 79% 30.21 in 10.0 mi Calm Calm - N/A   Overcast
6:07 PM 1.0 °F - -4.0 °F 79% 30.01 in 10.0 mi Calm Calm - N/A   Overcast
6:53 PM 1.0 °F -6.7 °F -4.0 °F 79% 30.21 in 10.0 mi NW 3.5 mph - N/A   Overcast
7:53 PM 1.0 °F -6.7 °F -4.0 °F 79% 30.22 in 10.0 mi NW 3.5 mph - N/A   Overcast
8:53 PM 1.0 °F - -4.0 °F 79% 30.22 in 8.0 mi Calm Calm - N/A   Overcast
9:53 PM 1.0 °F - -2.9 °F 83% 30.22 in 10.0 mi Calm Calm - N/A   Overcast
10:53 PM 1.0 °F -6.7 °F -4.0 °F 79% 30.23 in 9.0 mi NW 3.5 mph - 0.00 in   Overcast
11:53 PM 1.0 °F - -4.0 °F 79% 30.23 in 10.0 mi Calm Calm - N/A   Overcast